Location: Boitzum
(52.1496°N, 9.6943°E)
Time: 09:36:32
(UTC+00:00)

USA 307 - Pass Details

Date: 13 January 2026
Orbit: 495 x 502 km, 54.0° (Epoch: 10 March)

Event Time Altitude Azimuth Distance (km) Brightness Sun altitude
Exits shadow 04:30:52 42° 61° (ENE) 726 3.7 -25.7°
Drops below altitude 10° 04:33:43 10° 79° (ENE) 1,711 6.3 -25.3°
Sets 04:35:55 0° 82° (E) 2,559 7.5 -25.0°
